Flag Weather past 2 weeks in Phnom Penh, Cambodia

Now
81 °F

Passing clouds.


Feels Like: 87 °F
Forecast: 77 / 92 °F
Wind: 2 mph from Northwest

Location: Phnom-Penh / Pochentong

Current Time: Nov 24, 2014 at 2:04:29 AM

Latest Report: Nov 24, 2014 at 1:00 AM


Visibility: 6 mi

Pressure: 29.80 "Hg

Humidity: 89%

Dew point: 77 °F

Location of Phnom PenhLocation

Historic Weather in Phnom Penh — Graph

°F

Phnom Penh temperature yesterday

Maximum temperature yesterday: 91 °F (at 2:00 PM)
Minimum temperature yesterday: 79 °F (at 6:00 AM)
Average temperature yesterday: 84 °F

Past Weeks' High & Low Weather Summary

 TemperatureHumidityPressure
High91 °F (Nov 9, 12:30 PM)94% (Nov 9, 6:00 AM)29.95 "Hg (Nov 9, 6:00 AM)
Low75 °F (Nov 19, 7:00 AM)46% (Nov 17, 2:00 PM)29.71 "Hg (Nov 16, 3:30 PM)
Average85 °F68%29.83 "Hg
* Reported Midnight between Nov 8 and Nov 9 — Nov 24 12:30 AM, Phnom Penh, Weather by CustomWeather, © 2014

Note: Actual official high and low records may vary slightly from our data, if they occured in-between our weather recording intervals... More about our weather records

Advertising

Phnom Penh weather history for previous 24 hours

 ConditionsComfort  
Time TempWeatherWind HumidityBarometerVisibility
12:30 AM
Nov 24
81 °FPassing clouds.1 mph84%29.80 "Hg6 mi
12:00 AM81 °FPassing clouds.1 mph84%29.83 "Hg6 mi
11:30 PM
Nov 23
82 °FPassing clouds.1 mph79%29.83 "Hg6 mi
11:00 PM82 °FPassing clouds.1 mph84%29.83 "Hg6 mi
10:30 PM82 °FPassing clouds.1 mph79%29.83 "Hg6 mi
10:00 PM82 °FPassing clouds.1 mph84%29.83 "Hg6 mi
9:30 PM82 °FPassing clouds.2 mph84%29.83 "Hg6 mi
9:00 PM82 °FPassing clouds.1 mph84%29.80 "Hg6 mi
8:30 PM84 °FPassing clouds.1 mph79%29.80 "Hg6 mi
8:00 PM84 °FPassing clouds.2 mph79%29.80 "Hg6 mi
7:30 PM84 °FPassing clouds.2 mph79%29.80 "Hg6 mi
7:00 PM84 °FPassing clouds.2 mph79%29.77 "Hg6 mi
6:30 PM84 °FPassing clouds.3 mph74%29.77 "HgN/A
6:00 PM86 °FPassing clouds.1 mph70%29.77 "HgN/A
5:30 PM86 °FPassing clouds.3 mph70%29.74 "HgN/A
5:00 PM88 °FPassing clouds.7 mph62%29.74 "HgN/A
4:30 PM90 °FPassing clouds.5 mph59%29.74 "HgN/A
3:30 PM90 °FScattered clouds.7 mph59%29.74 "HgN/A
3:00 PM90 °FScattered clouds.7 mph55%29.77 "HgN/A
2:30 PM90 °FScattered clouds.7 mph55%29.77 "HgN/A
2:00 PM91 °FScattered clouds.1 mph52%29.77 "HgN/A
1:30 PM90 °FScattered clouds.2 mph63%29.77 "HgN/A
1:00 PM88 °FBroken clouds.1 mph70%29.80 "HgN/A
12:30 PM84 °FBroken clouds.1 mph74%29.83 "Hg6 mi
12:00 PM84 °FBroken clouds.7 mph79%29.83 "Hg6 mi
11:30 AM82 °FBroken clouds.8 mph84%29.86 "Hg6 mi
11:00 AM82 °FBroken clouds.5 mph84%29.86 "Hg6 mi
10:30 AM82 °FBroken clouds.3 mph84%29.86 "Hg6 mi
10:00 AM84 °FBroken clouds.3 mph79%29.86 "Hg6 mi
9:30 AM82 °FBroken clouds.2 mph79%29.86 "Hg6 mi
9:00 AM84 °FBroken clouds.2 mph79%29.86 "Hg6 mi
8:30 AM82 °FBroken clouds.2 mph84%29.86 "Hg6 mi
8:00 AM82 °FPartly sunny.2 mph84%29.86 "Hg6 mi
7:30 AM81 °FPartly sunny.No wind89%29.83 "Hg6 mi
7:00 AM81 °FPartly sunny.No wind89%29.83 "Hg6 mi
6:30 AM79 °FPartly sunny.No wind94%29.80 "Hg6 mi
6:00 AM79 °FPartly sunny.1 mph94%29.80 "Hg5 mi
Weather by CustomWeather, © 2014

See weather overviewHow to use our weather pages